Regional Weather Roundup
Issued by NWS

Home | Current Version | Previous Version | Graphics & Text | Print | Product List | Glossary On
Versions: 1 2 3 4 5 6 7 8 9 10 11 12 13 14 15 16 17 18 19 20 21 22 23 24 25 26 27 28 29 30 31 32 33 34 35 36 37 38 39 40 41 42 43 44 45 46 47 48 49 50
000
ASUS43 KTOP 031608
RWRKS

WEATHER ROUNDUP FOR KANSAS
NATIONAL WEATHER SERVICE GOODLAND KS
1100 AM CDT TUE MAY 03 2016

NOTE:  "FAIR" INDICATES FEW OR NO CLOUDS BELOW 12,000 FEET WITH NO
SIGNIFICANT WEATHER AND/OR OBSTRUCTIONS TO VISIBILITY.

KSZ001>006-013>018-027>032-041>047-031700-
NORTHWEST KANSAS

CITY           SKY/WX    TMP DP  RH WIND       PRES   REMARKS
GOODLAND       MOSUNNY   56  42  59 N13G18    30.12R
HAYS           SUNNY     61  39  44 N5        30.07S
HILL CITY      SUNNY     59  43  55 N7        30.09R
RUSSELL        SUNNY     62  45  53 NW6       30.04R
$$

KSZ061>065-074>080-084>089-031700-
SOUTHWEST KANSAS

CITY           SKY/WX    TMP DP  RH WIND       PRES   REMARKS
DODGE CITY     CLOUDY    61  37  41 NW7       30.06F
ELKHART          N/A     61  35  37 NW17        N/A
GARDEN CITY    SUNNY     59  39  47 N14       30.08R
GREAT BEND     SUNNY     61  43  51 CALM      30.06S
LIBERAL        SUNNY     63  43  48 N18       30.09S
PRATT          MOSUNNY   60  40  47 SW10      30.07S
$$

KSZ066>073-081>083-090>101-031700-
SOUTHEAST KANSAS

CITY           SKY/WX    TMP DP  RH WIND       PRES   REMARKS
CHANUTE        SUNNY     63  40  42 CALM      30.11S
COFFEYVILLE    SUNNY     61  46  57 NW3       30.12S
HUTCHINSON     SUNNY     63  44  50 S10       30.07S
MEDICINE LODGE   N/A     63  45  51 CALM      30.07S
NEWTON         SUNNY     63  39  42 SE7       30.10S
PARSONS        SUNNY     62  45  53 VRB3      30.12S
WICHITA INTL   MOSUNNY   61  46  57 VRB5      30.08F
WICHITA JABRA  SUNNY     62  43  49 W5        30.08S
WINFIELD       SUNNY     63  46  54 S6        30.24R
$$

KSZ007>012-019>026-033>040-048>060-102>105-031700-
NORTHEAST KANSAS

CITY           SKY/WX    TMP DP  RH WIND       PRES   REMARKS
CONCORDIA      SUNNY     64  42  44 SE9       30.05S
EMPORIA        SUNNY     62  41  46 CALM      30.09S
LAWRENCE       SUNNY     63  46  54 VRB3      30.09S
MANHATTAN      SUNNY     65  42  43 S6        30.07F
MARYSVILLE     SUNNY     61  41  48 W5        30.08S
OLATHE IND     SUNNY     61  42  49 CALM      30.10S
OLATHE EXE     SUNNY     60  42  51 W5        30.09S
SALINA         MOSUNNY   64  45  49 S8        30.05F
TOPEKA BILLARD SUNNY     63  42  46 SE6       30.08F
TOPEKA FORBES  SUNNY     64  42  44 SW7       30.08F
$$



USA.gov is the U.S. government's official web portal to all federal, state and local government web resources and services.